SL-14 R/B (21423 NORAD) Tracking and Keplerian Element Data

This shows tracking and keplerian element data for the satellite.

Feedback or suggestion? Click here.




ElementValue
Catalog21423
NameSL-14 R/B
Epoch Orbit46224
Epoch Day348.90390522
Epoch Year2018
RAAN171.4394
Inclination82.4926
Eccentricity0.0016127
Argument of Perigee262.2812
Mean Anonmoly97.657
Mean Motion14.79749845
Decay Rate5.4E-07
L11 21423U 91042B 18348.90390522 .00000054 00000-0 41876-5 0 9992
L22 21423 82.4926 171.4394 0016127 262.2812 97.6570 14.79749845462244

Live tracking and technical data element details for SL-14 R/B (NORAD 21423). SL-14 R/B can be tracked NOW for your location showing map with azimuth and elevation plus other details from your city location.

Track the satellite on the map from your city or location and see movement details for azimuth, elevation, latitude, longitude, range, height, and movement on the map or in text.







IsCatalogInMostPopularTable: catalog: 21423, numindb: 46
Update: records affected: 1



GetName: 21423 SL-14 R/B

Hit Count: updated at: Sat, 15 Dec 2018 14:00:01 GMT